Tracking 30264 objects as of 16-Feb-2025
HD Live streaming from Space Station
objects crossing your sky now

PEGASUS DEB

Track PEGASUS DEB now!
10-day predictions


NORAD ID: 39924
Int'l Code: 1994-029AFX
Perigee: 549.2 km
Apogee: 711.9 km
Inclination: 81.9 °
Period: 97.2 minutes
Semi major axis: 7001 km
RCS: 0.0161 m2 (small)
Launch date: May 19, 1994
Source: United States (US)
Launch site: AIR FORCE WESTERN TEST RANGE (AFWTR)

Note: This is SATELLITE DEBRIS
Your satellite tracking list
Your tracking list is empty




NASA's NSSDC Master Catalog

Two Line Element Set (TLE):
1 39924U 94029AFX 25046.38785788  .00007068  00000-0  79166-3 0  9995
2 39924  81.8539 283.9354 0116138  60.5237 300.7500 14.81873135574765
Source of the keplerian elements: AFSPC